Location: 22
(39.7117°N, 89.5929°W)
Time: 08:55:03
(UTC-05:00)

S-56A Canister/Altair - Pass Details

Date: 11 February 2023
Orbit: 638 x 2493 km, 38.9° (Epoch: 25 March)

Event Time Altitude Azimuth Distance (km) Brightness Sun altitude
Rises 07:14:44 0° 222° (SW) 3,634 10.8 2.6°
Reaches altitude 10° 07:17:59 10° 210° (SSW) 2,448 10.0 3.2°
Maximum altitude 07:22:31 27° 154° (SSE) 1,360 9.6 4.0°
Drops below altitude 10° 07:26:22 10° 96° (E) 2,051 11.6 4.7°
Sets 07:28:50 0° 83° (E) 2,931 11.7 5.1°
